Regional Weather Roundup
Issued by NWS Boston, MA

Home | Current Version | Previous Version | Text Only | Print | Product List | Glossary On
Versions: 1 2 3 4 5 6 7 8 9 10 11 12 13 14 15 16 17 18 19 20 21 22 23 24 25 26 27
000
ASUS41 KBOX 250310
RWRBOX

REGIONAL WEATHER ROUNDUP
NATIONAL WEATHER SERVICE TAUNTON MA
1100 PM EDT MON APR 24 2017

NOTE:  "FAIR" INDICATES FEW OR NO CLOUDS BELOW 12,000 FEET WITH NO
SIGNIFICANT WEATHER AND/OR OBSTRUCTIONS TO VISIBILITY.

MAZALL-250400-
EASTERN MASSACHUSETTS

CITY           SKY/WX    TMP DP  RH WIND       PRES   REMARKS
BOSTON         CLOUDY    52  42  69 SE5       30.20R
BEVERLY        PTCLDY    50  42  74 E3        30.20R
LAWRENCE       CLOUDY    52  43  71 NE7       30.22R
BEDFORD        PTCLDY    52  35  52 CALM      30.19R
BLUE HILL        N/A     51  36  56 S12       30.17S
NORWOOD        CLOUDY    52  40  63 MISG      30.19S
MARSHFIELD     CLOUDY    52  43  71 S5        30.20S
PLYMOUTH       CLOUDY    50  43  77 S3        30.20F
TAUNTON        CLOUDY    50  42  74 SE3       30.19F
NEW BEDFORD    CLOUDY    50  44  80 SE3       30.19F
$$

MAZALL-250400-
CAPE COD AND THE ISLANDS

CITY           SKY/WX    TMP DP  RH WIND       PRES   REMARKS
FALMOUTH       CLOUDY    48  46  93 MISG      30.21S
HYANNIS        CLOUDY    49  45  86 SE6       30.20S
CHATHAM        CLOUDY    48  45  89 SE7       30.22F
PROVINCETOWN   CLOUDY    49  45  86 SE7       30.22S
NANTUCKET      CLOUDY    48  44  86 E9        30.20S
MARTHAS VNYRD  CLOUDY    50  46  86 E8        30.19F
$$

MAZALL-250400-
CENTRAL AND WESTERN MASSACHUSETTS

CITY           SKY/WX    TMP DP  RH WIND       PRES   REMARKS
WORCESTER      PTCLDY    53  34  48 S3        30.18S
FITCHBURG      CLOUDY    54  41  61 CALM      30.19R
ORANGE         PTCLDY    49  42  77 CALM      30.17S
SPRINGFIELD    MOCLDY    56  37  48 S3        30.16R
WESTFIELD      CLOUDY    56  39  53 CALM      30.16S
NORTH ADAMS    PTCLDY    50  38  63 CALM      30.15R
PITTSFIELD     PTCLDY    56  33  42 S7        30.15R
$$

RIZALL-250400-
RHODE ISLAND

CITY           SKY/WX    TMP DP  RH WIND       PRES   REMARKS
PROVIDENCE     CLOUDY    49  46  90 CALM      30.20S
NEWPORT        CLOUDY    49  46  90 E5        30.19S
BLOCK ISLAND   CLOUDY    48  46  93 E7        30.19R
SMITHFIELD     CLOUDY    49  41  74 CALM      30.19S
WESTERLY       CLOUDY    51  47  86 NE5       30.19S
$$

CTZALL-250400-
CONNECTICUT

CITY           SKY/WX    TMP DP  RH WIND       PRES   REMARKS
BRADLEY INTL   CLOUDY    56  33  42 S7        30.17S
HARTFORD       CLOUDY    53  40  61 CALM      30.17F
BRIDGEPORT     CLOUDY    51  44  77 E12       30.16S
DANBURY        CLOUDY    50  40  68 E7        30.16S
GROTON         CLOUDY    51  46  83 NE5       30.17F
NEW HAVEN      CLOUDY    50  43  77 CALM      30.17R
CHESTER        MOCLDY    50  39  66 CALM      30.16F
MERIDEN        CLOUDY    54  37  52 SE3       30.17S
WILLIMANTIC    CLOUDY    54  41  61 CALM      30.19S
OXFORD         CLOUDY    52  34  50 E6        30.17S
$$

MEZ002-015-021-024-NHZ003-005-008-011-012-014-VTZ005-008-250400-
NORTHERN NEW ENGLAND

CITY           SKY/WX    TMP DP  RH WIND       PRES   REMARKS
PORTLAND ME    CLEAR     45  42  89 VRB6      30.26R
BANGOR ME      CLOUDY    40  27  59 CALM      30.29R
CONCORD NH     CLOUDY    53  40  61 CALM      30.21R
MANCHESTER NH  MOCLDY    52  41  66 VRB6      30.19R
NASHUA NH      PTCLDY    55  39  54 E3        30.20R
PORTSMOUTH NH  CLOUDY    46  43  88 NE7       30.22R
JAFFREY NH     CLOUDY    49  43  80 CALM      30.19R
KEENE NH       CLOUDY    50  41  71 SW3       30.18R
BURLINGTON VT  CLEAR     43  30  60 N6        30.23F
MT. WASHINGTON MOCLDY    36  28  75 SW9         N/A  WCI  29
$$

NYZ052-076-250400-
EASTERN NEW YORK

CITY           SKY/WX    TMP DP  RH WIND       PRES   REMARKS
ALBANY         CLOUDY    51  33  50 N7        30.16S
NEW YORK CITY  CLOUDY    52  45  77 NE12      30.13F
$$

ANZALL-250400-
MARINE OBSERVATIONS

STATION/POSITION TIME  TEMP    WIND        PRES    VSBY  WAVE
                       AIR SEA DIR/SP/G                  HT/PER
                 (UTC) (F)     (DEG/KT/KT) (MB)    (MI)  (FT/S)
BOSTON BUOY      0150   49 46  160/ 12/ 14 1021.3          3/11
BUZZARDS BAY     0200   48      80/ 11/ 11 1022.5F
NANTUCKET SOUND  0250      49              1022.7S         1/ 8
MASS BAY-STELLWA 0204   47 44  180/  8/ 10 1021.9R         3/11
ISLE OF SHOALS   0200   47      70/ 15/ 15 1022.7R
S OF BLOCK IS    0225      48                N/A           2/10
$$

......................KEY.........................
  SKY/WX - SKY CONDITION/PRESENT WEATHER
  TMP    - TEMPERATURE IN FAHRENHEIT
  DWPT   - DEWPOINT IN FAHRENHEIT
  RH     - RELATIVE HUMIDITY IN PERCENT
  WIND   - DIRECTION AND SPEED IN MPH
  PRES   - MEAN SEA LEVEL PRESSURE IN INCHES OF HG
  WCI    - WIND CHILL INDEX
  VSB    - VISIBILITY IN MILES
  HX     - HEAT INDEX
  TC     - TEMPERATURE IN CELSIUS
  VRB    - VARIABLE WIND DIRECTION
  N/A    - NOT AVAILABLE




USA.gov is the U.S. government's official web portal to all federal, state and local government web resources and services.